Regional Weather Roundup
Issued by NWS

Home | Current Version | Previous Version | Graphics & Text | Print | Product List | Glossary On
Versions: 1 2 3 4 5 6 7 8 9 10 11 12 13 14 15 16 17 18 19 20 21 22 23 24 25 26 27 28 29 30 31 32 33 34 35 36 37 38 39 40 41 42 43 44 45 46 47 48 49 50
000
ASUS43 KOAX 300802
RWRNE

WEATHER ROUNDUP FOR NEBRASKA
NATIONAL WEATHER SERVICE OMAHA NE
300 AM CDT SUN AUG 30 2015

NOTES: SATELLITE DATA IS BEING USED TO AUGMENT CLOUD COVER ABOVE
       12000 FEET.
       "FAIR" INDICATES FEW OR NO CLOUDS BELOW 12,000 FEET WITH NO
       SIGNIFICANT WEATHER AND/OR OBSTRUCTIONS TO VISIBILITY.

  * THESE STATIONS DO NOT REPORT WEATHER SUCH AS RAIN...SNOW OR FOG.

NEZ001>004-019>022-054>056-300900-
NEBRASKA PANHANDLE

CITY           SKY/WX    TMP DP  RH WIND       PRES   REMARKS
SCOTTSBLUFF    PTCLDY    74  40  29 SE10      30.01F
ALLIANCE       PTCLDY    56  47  71 SE8       30.01F
CHADRON        PTCLDY    72  44  36 S14       29.91F
KIMBALL        PTCLDY    64  41  42 S12       30.08F
SIDNEY         PTCLDY    67  41  38 S14       30.08F
$$

NEZ057>060-069>072-079>082-300900-
SOUTHWEST NEBRASKA

CITY           SKY/WX    TMP DP  RH WIND       PRES   REMARKS
NORTH PLATTE   CLEAR     65  53  65 SE7       30.04F
IMPERIAL       CLEAR     62  48  60 SW8       30.05F
MCCOOK         CLEAR     64  52  64 CALM      30.04F
$$

NEZ005>010-023>029-035>040-094-300900-
NORTH CENTRAL NEBRASKA

CITY           SKY/WX    TMP DP  RH WIND       PRES   REMARKS
VALENTINE      CLEAR     69  57  65 SW16      29.96F
AINSWORTH      CLEAR     65  61  85 S10       29.99F
BROKEN BOW     CLEAR     59  56  89 CALM      30.03F
O`NEILL        CLEAR     64  63  96 S8        30.00S
ORD            CLEAR     56  55  97 CALM      30.01F
$$

NEZ041-046>049-061>064-073>077-083>087-300900-
SOUTH CENTRAL NEBRASKA

CITY           SKY/WX    TMP DP  RH WIND       PRES   REMARKS
GRAND ISLAND   CLOUDY    63  62  97 S10       30.03F FOG
AURORA         FOG       62  62 100 S6        30.03F VSB 1/4
HASTINGS       FOG       62  61  96 S8        30.04F VSB 3/4
KEARNEY *      CLEAR     61  57  88 SW8       30.04S
YORK           FOG       63  63 100 S8        30.04F VSB 1/2
$$

NEZ011>018-030>034-042>045-300900-
NORTHEAST NEBRASKA

CITY           SKY/WX    TMP DP  RH WIND       PRES   REMARKS
NORFOLK        CLOUDY    63  62  97 S9        30.01F FOG
ALBION         CLOUDY    63  61  93 SE3       30.03F FOG
BLAIR          CLEAR     61  59  92 S3        30.03F
COLUMBUS *     CLOUDY   N/A N/A N/A S5        30.03F
FREMONT        CLOUDY    64  61  89 S8        30.04S
TEKAMAH        CLOUDY    64  63  96 S6        30.02F
$$

NEZ050>053-065>068-078-088>093-300900-
SOUTHEAST NEBRASKA

CITY           SKY/WX    TMP DP  RH WIND       PRES   REMARKS
LINCOLN        CLOUDY    62  61  96 S6        30.05F FOG
OMAHA EPPLEY   PTCLDY    63  61  93 S6        30.03F
BEATRICE       CLOUDY    62  61  97 S5        30.05F FOG
FALLS CITY     FOG       56  56 100 CALM      30.03F VSB 1/4
NEBRASKA CITY    N/A     59  58  99 W5        30.04F FOG
PLATTSMOUTH    CLEAR     59  58  96 SW5       30.04F FOG
$$

NEZ044-045-051>053-067-300900-
OMAHA AREA

CITY           SKY/WX    TMP DP  RH WIND       PRES   REMARKS
OMAHA EPPLEY   PTCLDY    63  61  93 S6        30.03F
BLAIR          CLEAR     61  59  92 S3        30.03F
FREMONT        CLOUDY    64  61  89 S8        30.04S
OFFUTT AFB     CLEAR     63  61  94 S2        30.03S
PLATTSMOUTH    CLEAR     59  58  96 SW5       30.04F FOG
WAHOO          CLOUDY    63  61  94 S5        30.04F
$$




USA.gov is the U.S. government's official web portal to all federal, state and local government web resources and services.